STARLINK-32510, 62040

Orbit data source: Space-Track

STARLINK-32510, 62040 is a payload satellite owned by SpaceX/Seattle (US) in LEO that was launched on Thu, 21 Nov 2024 UTC via an FALCON 9 launch vehicle from the Air Force Eastern Test Range (AFETR). Payloads include a variety of satellites, spacecraft, and rockets equipped with specific instruments for various scientific and technological missions. These include communications satellites like Starlink; space stations such as the ISS; scientific satellites like the Hubble; Earth observation satellites from companies like Planet Labs, Umbra, and HawkEye 360; GPS; miniature CubeSats for education and research; and military/defense satellites.

Loading next visibility...
STARLINK-32510 details
Identifier
62040, 2024-216J
Orbit
LEO
Last TLE update10 hours ago
Origin
Flag of USSpaceX/Seattle (US)
ManufacturerSpaceX/Seattle
MissionOperational spacecraft
Bus & MotorSTARLINK V2M, Unknown motor
Mass730 kg wet, ~700 kg dry
Launch date (UTC)
2024-11-21 (3 weeks ago)
Launch vehicle
FALCON 9
Launch site
Air Force Eastern Test Range (AFETR)
Object type
Payload
Rocket body
Debris
Shape & HBRUnknown
Radar Cross SectionLarge (>1 m²)

Expand to show TLE details & history

TLE from 10 hours ago
0 STARLINK-32510
1 62040U 24216J   24348.50002315 -.00007298  00000-0 -11865-3 0  9996
2 62040  42.9997 307.3876 0001136 277.9813 187.6000 15.50588058  4535
Epoch: 2024-12-13T12:00Z
Definitive object data (Epoch: 2024-12-13T12:00:02Z)
Latitude41.22128°
Longitude155.60414°
Altitude418.485 km
Speed7.666 km/s
True Right ascension03h 53m 06s
True Declination41° 02' 33"
Sunlit
Object was in full shadow at TLE epoch
Visualization TLE readout
Latitude1.01145°
Longitude-138.70215°
Altitude414.835 km
Speed7.664 km/s
Apparent Right ascension08h 12m 12s
Apparent Declination-18° 40' 46"
Sunlit
Object is in full shadow
Visualization observer readout
Local Sidereal Time20:07:06
Azimuth356.671° N
Elevation-68.735°
Doppler factor1
Orbital elements
Apogee altitude417.745 km
Perigee altitude416.201 km
Semi-major axis6,795.11 km
Eccentricity0.0001136
Inclination42.9997°
RAAN307.3876°
Arg. of periapsis277.9813°
True anomaly187.59828°
Mean anomaly187.6°
Eccentric anomaly187.59914°
Mean motion3.87479 °/min
BSTAR-0.00011865
Orbital period92.91 mins
Loading maneuver chart data...
Loading historical data...
Loading historical data...
Loading historical data...
Loading historical data...
Loading historical data...
Loading historical data...
Loading historical data...

STARLINK-32510 Visibility forecast

Observer location: undefined°, undefined

Span
Click to sort rows by Start time (UTC) header in descending order
Start Az.
Max El. time (UTC)
Max El. Az.
Max El.
End time (UTC)
End Az.
5 mins2024-12-14 01:43:21.067Z242.118° WSW2024-12-14 01:45:21.067Z107.881° ESE43.268°2024-12-14 01:48:21.067Z73.44° E
4 mins2024-12-14 03:21:21.067Z298.967° NW2024-12-14 03:22:21.067Z337.419° NNW35.988°2024-12-14 03:25:21.067Z70.28° E
5 mins2024-12-14 04:58:21.067Z294.391° NW2024-12-14 05:00:21.067Z24.686° NE42.99°2024-12-14 05:03:21.067Z98.155° ESE
4 mins2024-12-14 06:36:21.067Z248.883° W2024-12-14 06:37:21.067Z217.982° SW26.366°2024-12-14 06:40:21.067Z148.737° SSE
|